Location: Unspecified
(61.6667°N, 50.8167°E)
Time: 00:40:52
(UTC+02:00)

ISS - All Passes

Search period start: 24 October 2017 00:00
Search period end: 02 November 2017 23:00
Orbit: 400 x 408 km, 51.6° (Epoch: 24 October)

Date Brightness Start Highest point End Pass type
(mag) Time Alt. Az. Time Alt. Az. Time Alt. Az.
24 Oct - 09:04:35 10° SSW 09:06:14 13° SSE 09:07:53 10° SE daylight
24 Oct - 10:39:59 10° SW 10:41:48 14° S 10:43:36 10° SSE daylight
25 Oct - 08:13:00 10° S 08:14:10 11° SSE 08:15:20 10° SE daylight
25 Oct - 09:47:47 10° SW 09:49:42 15° S 09:51:37 10° SE daylight
25 Oct - 11:25:02 10° SSW 11:25:12 10° SSW 11:25:21 10° SSW daylight
26 Oct - 08:55:42 10° SSW 08:57:35 15° S 08:59:29 10° SE daylight
26 Oct - 10:31:47 10° SW 10:33:08 12° SSW 10:34:29 10° S daylight
27 Oct - 08:03:45 10° SSW 08:05:29 14° S 08:07:13 10° SE daylight
27 Oct - 09:39:18 10° SW 09:41:02 14° S 09:42:46 10° SSE daylight
28 Oct - 07:12:00 10° S 07:13:22 12° SSE 07:14:44 10° SE daylight
28 Oct - 08:47:01 10° SW 08:48:54 15° S 08:50:48 10° SSE daylight
29 Oct - 05:20:59 10° SSE 05:21:17 10° SSE 05:21:34 10° SSE daylight
29 Oct - 06:54:51 10° SW 06:56:46 15° S 06:58:41 10° SE daylight
29 Oct - 08:31:10 10° SW 08:32:18 11° SSW 08:33:26 10° S daylight
30 Oct - 06:02:49 10° SSW 06:04:37 14° S 06:06:25 10° SE daylight
30 Oct - 07:38:32 10° SW 07:40:10 13° SSW 07:41:47 10° SSE daylight
31 Oct - 05:10:57 10° SSW 05:12:28 13° SSE 05:13:59 10° SE daylight
31 Oct - 06:46:10 10° SW 06:48:01 14° S 06:49:52 10° SSE daylight
01 Nov - 04:19:27 10° S 04:20:19 11° SSE 04:21:11 10° SE visible
01 Nov - 05:53:55 10° SW 05:55:50 15° S 05:57:45 10° SE daylight
01 Nov - 07:30:32 10° SW 07:31:20 11° SSW 07:32:09 10° S daylight
02 Nov - 05:01:47 10° SSW 05:03:38 14° S 05:05:30 10° SE daylight
02 Nov - 06:37:40 10° SW 06:39:11 13° SSW 06:40:41 10° SSE daylight
